Probability
4 1 0 0 0 0 0 0 0 0 0 0 0 0 0 0 0 0 0 0 1 2 2 1 0 0 0 0 0 0 0 0 1 3 4 4 3 3 4 5 4 2 0 0 0 0 0 1 1
2 1 0 0 0 0 0 0 0 0 0 0 0 0 0 0 0 0 0 0 0 1 1 1 0 0 0 0 0 0 0 0 0 2 4 4 3 2 4 5 4 2 0 0 0 0 0 0 1
1 0 0 0 0 0 0 0 0 0 0 0 0 0 0 0 0 0 0 0 0 1 1 1 0 0 1 1 1 1 0 0 0 2 4 4 2 2 3 5 4 1 0 0 0 0 0 0 0
0 0 0 0 0 0 0 0 0 0 0 0 0 0 0 0 0 0 0 0 0 1 1 1 0 0 1 2 2 1 1 1 1 2 4 4 2 1 3 4 3 1 0 0 0 0 0 0 0
1 1 0 0 0 0 0 0 0 0 0 0 0 0 0 0 1 1 0 0 0 0 0 0 0 1 2 3 3 2 2 2 1 3 4 3 2 1 2 3 2 0 0 0 0 0 0 0 0
0 0 0 0 0 0 0 0 0 0 0 1 1 0 0 1 2 2 1 0 0 0 0 0 0 2 4 5 5 3 1 1 2 4 4 2 1 2 3 3 2 1 0 0 0 0 0 0 0
0 0 0 0 0 0 0 0 0 0 0 1 1 0 0 1 2 2 1 0 0 0 0 0 0 2 4 5 4 3 1 2 3 3 3 1 1 2 3 3 3 2 1 1 0 1 1 0 0
0 0 0 0 0 0 0 0 0 0 0 0 0 0 0 1 1 1 0 0 0 0 0 0 0 0 1 2 2 2 2 2 3 2 1 1 1 2 2 3 3 2 1 1 1 1 1 0 0
0 0 0 0 0 0 0 0 0 0 0 0 0 0 1 2 2 1 0 0 0 0 0 0 0 0 0 0 0 1 2 2 1 1 0 0 1 1 1 1 2 2 0 0 1 1 0 0 0
0 0 0 0 0 0 0 0 0 0 0 0 0 1 3 3 3 2 1 0 0 0 0 0 0 0 0 0 0 0 1 1 0 0 0 0 0 0 0 1 2 1 1 1 1 1 0 0 0
0 0 0 0 0 0 0 0 0 0 0 0 1 3 4 4 3 2 1 0 0 0 0 0 0 0 0 0 0 0 0 0 0 0 0 0 0 0 0 0 1 1 1 1 2 2 1 0 0
1 0 0 0 0 0 0 0 0 0 0 0 1 3 5 5 3 1 0 0 0 0 0 0 0 0 0 0 0 0 0 0 0 0 0 0 0 0 0 0 0 0 0 1 1 2 1 0 0
2 1 0 0 0 0 0 0 0 0 0 0 1 2 4 4 2 0 0 0 0 0 0 0 0 0 0 0 0 0 0 0 0 0 0 0 0 0 0 0 0 0 0 0 1 1 1 0 0
2 1 0 0 0 0 0 0 0 0 0 0 0 1 3 2 1 0 0 0 0 0 0 0 0 0 0 0 0 0 0 0 0 0 0 0 0 0 0 0 0 0 0 0 0 0 0 0 0
1 1 0 0 0 0 0 0 0 0 0 0 0 1 2 1 0 0 0 0 0 0 0 0 0 0 0 0 0 0 0 0 0 0 0 0 0 0 0 0 0 0 0 0 0 0 0 0 0
0 0 0 0 0 0 0 0 0 0 0 0 1 2 2 1 0 0 0 0 0 0 0 0 0 0 0 0 0 0 0 0 0 0 0 0 0 0 0 0 0 0 0 0 0 0 0 0 0
0 0 0 0 0 0 0 0 0 0 0 0 1 2 2 1 0 0 0 0 0 0 0 0 0 0 0 0 0 0 0 0 0 0 0 0 0 0 0 0 0 0 0 0 0 0 0 0 0
0 0 0 0 0 0 0 1 1 1 0 0 1 2 3 1 0 0 0 0 0 0 0 0 0 0 0 0 0 0 0 0 0 0 0 0 0 0 0 0 0 0 0 0 0 0 0 0 0
0 0 0 0 0 0 0 1 2 1 0 0 1 3 3 2 1 0 1 1 0 0 0 0 0 0 0 0 0 0 0 0 0 0 0 0 0 0 0 0 0 0 0 0 0 0 0 0 0
0 0 0 0 0 0 0 0 1 1 1 0 1 3 4 4 2 1 2 2 1 0 0 1 1 0 0 0 0 0 0 0 0 0 0 0 0 0 0 0 0 1 1 0 0 0 0 0 0
0 0 0 0 0 0 0 0 0 1 2 1 1 3 5 4 3 2 3 2 1 0 1 2 2 1 1 1 0 0 0 0 0 0 0 0 0 0 0 0 1 2 2 1 0 0 0 0 0
0 0 0 0 0 0 0 0 0 1 2 1 1 3 4 4 3 3 3 2 1 2 3 4 4 3 3 2 1 0 1 1 1 0 0 0 0 0 0 1 2 3 3 2 1 0 0 0 0
0 0 0 0 0 0 0 0 0 1 1 1 1 2 3 3 3 2 2 2 2 3 4 5 6 6 5 5 3 2 2 2 2 1 1 1 1 1 1 2 3 3 3 3 2 1 0 0 0
0 0 0 0 0 0 0 0 0 1 0 0 1 2 2 3 3 2 2 3 3 4 4 5 7 8 8 8 7 4 3 3 3 3 3 3 2 2 3 3 3 3 3 3 3 2 1 0 0
0 0 0 0 0 0 0 0 0 0 0 0 1 1 2 3 2 2 2 3 4 4 5 6 7 9 9 10 9 7 4 4 4 4 4 3 2 3 3 2 2 3 3 3 3 3 2 1 0
0 0 0 0 0 0 0 1 0 0 0 1 2 1 2 2 2 2 2 3 3 3 4 6 7 8 9 10 10 9 7 5 5 5 4 3 2 2 1 1 1 1 2 2 2 2 2 1 0
0 0 0 0 0 0 0 0 0 0 0 1 2 2 1 2 2 2 2 2 2 3 4 7 8 8 8 9 10 10 8 7 8 8 7 5 3 2 1 0 0 0 1 1 1 1 1 0 0
0 0 0 0 0 0 0 0 0 1 1 1 1 1 1 1 2 3 3 3 4 4 5 6 7 7 7 7 8 8 9 10 10 10 10 8 6 4 3 2 1 1 1 1 1 0 0 0 0
0 0 0 0 0 0 0 0 0 1 2 1 0 0 0 1 3 4 4 5 5 5 5 5 5 5 6 6 7 8 10 11 11 11 11 11 9 6 5 5 4 3 2 1 1 1 1 0 0
0 0 0 0 0 0 0 0 0 1 2 1 0 0 1 2 3 4 4 6 6 5 4 5 4 5 6 6 7 9 11 12 11 11 11 12 10 7 6 6 6 5 3 2 2 2 2 1 0
Wind_Speed
8 6 2 1 3 5 2 2 1 2 3 2 5 6 6 4 2 2 0 1 2 2 1 2 4 6 7 8 8 9 9 10 10 11 12 13 13 14 14 14 14 14 14 14 14 14 14 14 14
5 5 1 2 4 3 2 1 2 2 4 4 4 5 5 4 3 3 1 1 3 2 2 3 5 7 7 8 9 9 9 10 10 11 12 13 13 13 13 14 14 14 14 14 14 14 13 13 13
6 3 1 3 3 2 1 1 4 5 4 2 3 4 4 3 3 2 2 3 3 2 2 2 6 7 7 9 9 9 10 10 10 11 12 12 12 12 12 13 13 13 13 13 13 13 13 12 12
2 0 2 4 2 1 2 3 5 5 3 4 4 5 4 3 2 4 5 5 4 2 2 2 6 7 8 10 9 9 9 10 10 11 11 12 12 11 11 11 12 12 12 13 13 13 12 11 11
1 2 4 4 2 1 2 4 3 3 2 3 4 4 3 3 6 7 6 5 4 2 2 2 6 7 8 9 9 9 9 9 9 10 11 11 10 10 10 10 11 11 11 12 12 12 11 10 9
2 3 4 2 2 2 2 3 4 4 4 4 4 4 2 3 6 5 5 4 3 3 2 2 5 6 7 8 8 8 9 9 9 10 10 10 9 9 9 9 10 10 11 11 11 10 10 9 8
2 3 2 1 1 1 2 2 3 4 4 3 4 4 2 2 4 5 5 4 4 3 3 3 3 4 5 6 7 8 8 8 9 9 9 9 8 8 8 8 8 9 10 10 10 10 9 8 7
3 4 2 0 1 1 3 3 3 4 3 4 4 5 4 4 5 6 5 4 4 3 3 3 3 3 3 3 5 7 8 8 8 8 8 8 7 7 6 5 7 8 8 9 8 8 8 7 7
2 4 0 2 3 2 3 3 2 3 5 3 2 3 5 10 8 7 5 3 3 3 2 2 2 2 3 3 4 5 6 6 6 6 7 6 4 3 3 5 7 7 7 7 7 7 7 6 5
3 2 3 3 4 4 4 4 4 4 4 3 5 7 10 10 8 8 6 4 3 2 1 1 2 1 2 2 3 3 3 3 4 3 4 3 3 2 3 5 6 6 6 5 5 5 5 4 2
3 3 2 1 3 5 4 3 3 7 3 4 8 11 11 9 7 8 6 4 3 2 2 1 1 1 2 2 2 2 2 2 2 3 3 2 2 2 2 2 2 3 3 3 3 3 2 2 1
2 2 1 1 2 4 4 4 4 3 3 6 10 13 11 10 8 8 7 5 3 3 2 1 2 2 2 2 2 1 1 1 1 1 1 1 1 1 1 1 1 2 1 2 2 2 2 2 2
1 0 1 2 3 3 5 4 4 2 5 9 11 11 10 9 7 6 5 5 4 3 2 2 2 2 2 2 1 1 1 1 1 1 1 1 1 1 1 1 1 1 1 2 2 2 2 2 2
1 2 2 3 4 3 5 3 3 3 8 10 10 9 9 9 8 6 6 5 5 4 3 2 2 2 2 2 1 1 1 1 1 0 0 1 1 1 1 1 1 1 1 1 2 2 2 1 1
3 4 4 2 2 2 5 2 1 5 9 10 9 8 8 7 7 7 7 6 6 5 4 3 3 3 2 2 2 1 1 1 1 0 0 1 1 2 1 1 1 1 1 2 2 2 2 1 1
4 4 1 2 1 2 5 2 2 6 9 9 8 8 7 7 7 7 7 6 5 4 4 4 4 3 3 2 1 1 1 1 1 0 0 0 1 2 2 1 1 1 2 2 2 2 1 1 1
4 1 2 2 2 3 3 3 4 7 8 9 8 8 8 6 6 6 6 6 6 5 5 4 3 3 3 3 2 1 1 1 0 0 0 0 1 2 2 1 1 2 2 1 2 2 2 1 1
3 2 2 3 3 3 2 3 4 7 8 8 8 7 7 8 9 7 7 6 6 5 5 4 4 3 3 2 2 1 1 1 0 0 0 0 1 2 2 2 2 2 2 1 1 2 2 1 1
4 3 3 3 2 3 4 3 4 7 7 7 7 8 9 9 7 6 6 6 5 4 4 4 4 3 3 2 2 2 1 0 0 0 0 1 1 2 2 2 2 2 2 2 2 2 2 1 1
3 2 2 2 0 3 2 3 3 7 10 10 10 10 10 8 6 6 6 6 6 6 5 5 4 4 4 3 2 2 2 1 1 0 0 0 1 2 2 3 2 2 2 2 2 2 2 1 1
3 5 4 3 1 2 2 4 2 4 5 6 7 8 9 11 11 9 8 7 6 7 7 6 5 4 4 3 2 2 2 2 1 1 0 0 1 1 2 3 3 2 2 2 2 3 3 2 1
4 5 5 4 3 1 1 3 6 3 4 7 8 8 9 10 10 9 9 8 8 8 7 6 5 5 4 4 4 4 3 2 2 1 1 0 1 1 2 2 3 3 2 2 2 2 2 3 1
5 2 3 3 3 1 1 1 7 1 5 9 10 11 10 9 10 11 11 10 8 7 6 6 5 5 5 5 5 4 3 2 1 1 1 0 0 0 1 2 2 2 2 2 2 2 2 2 2
5 6 6 6 5 1 3 3 7 5 8 7 9 11 10 9 9 9 9 8 7 6 6 6 6 6 5 6 5 5 5 4 3 2 2 1 0 0 0 1 2 2 2 2 2 2 3 2 3
6 7 4 4 3 5 2 3 9 7 7 8 9 10 10 9 9 9 9 9 9 9 8 7 7 7 6 6 6 6 6 6 5 4 3 2 1 1 1 1 2 2 2 2 2 2 2 3 3
4 9 8 5 5 4 1 5 8 5 5 4 5 6 7 9 9 9 10 10 10 9 9 8 8 7 6 6 6 5 5 4 3 4 3 3 2 2 2 2 2 2 2 2 2 2 2 2 2
5 3 6 7 2 1 4 6 8 3 2 1 2 4 6 8 9 10 9 9 9 9 9 9 8 7 7 7 6 5 5 5 4 4 3 2 2 2 2 2 2 2 2 2 2 1 2 2 2
5 8 6 6 5 3 5 5 5 5 3 2 2 3 5 6 7 8 8 8 8 8 8 7 8 8 7 6 6 5 5 5 4 4 4 3 3 2 2 2 2 2 2 2 2 2 2 2 1
4 4 5 5 5 6 3 8 7 7 5 4 4 4 5 7 8 8 7 7 7 6 7 7 7 6 6 6 6 5 5 4 4 4 4 4 3 3 3 2 2 2 2 2 3 3 2 2 1
4 6 8 6 4 4 4 9 4 4 3 4 4 3 3 5 6 6 6 6 7 7 7 7 7 7 6 6 5 5 4 4 4 4 4 3 3 2 3 3 2 2 2 2 3 3 2 2 2
Wind_Direction
152 140 145 132 56 49 26 343 55 64 55 48 62 73 80 66 81 126 290 100 104 86 76 108 107 108 108 109 110 108 108 110 112 118 120 121 122 123 124 126 126 127 127 128 128 126 126 125 125
148 153 179 61 73 59 343 336 89 94 134 127 74 72 72 63 68 101 80 103 103 93 64 94 105 106 109 112 111 107 106 107 109 115 119 121 121 121 124 127 128 128 129 130 128 127 126 127 126
163 190 97 66 77 144 176 153 123 111 123 99 73 59 72 88 106 126 145 124 98 72 52 89 99 100 105 112 111 107 107 107 109 114 120 122 122 122 125 127 131 131 132 133 130 128 126 127 127
164 128 59 62 46 233 170 158 137 121 86 63 90 68 63 56 120 130 129 118 99 65 50 84 92 96 103 108 106 105 105 108 112 117 120 122 123 125 126 126 130 133 132 132 132 130 129 129 130
105 78 54 37 5 13 112 138 127 110 94 72 88 87 50 28 95 111 114 113 105 74 50 68 92 95 102 104 102 102 106 110 114 118 121 124 127 128 127 129 131 134 134 132 132 132 131 129 132
56 61 64 33 23 43 81 105 107 93 96 93 90 93 57 94 108 116 110 104 98 85 55 56 92 99 98 103 105 103 106 112 113 115 117 122 127 129 129 131 134 138 139 137 135 134 134 132 133
88 76 89 112 79 81 134 111 108 114 111 113 112 98 89 117 119 114 107 100 88 74 56 37 48 76 92 99 103 105 104 106 109 111 116 120 124 126 129 133 136 137 140 139 139 138 139 135 132
127 92 59 58 144 175 140 106 113 121 113 119 113 129 165 165 130 108 98 90 86 74 58 43 41 51 55 68 99 104 106 106 108 110 110 109 112 115 122 129 138 140 138 139 141 143 140 137 136
106 71 160 198 172 177 149 127 126 96 110 104 94 131 144 132 123 113 101 85 87 92 61 55 53 57 62 64 88 93 99 96 97 97 95 87 71 71 87 111 129 136 137 139 143 145 142 137 132
94 122 224 206 173 158 156 143 144 113 105 88 84 95 120 129 134 134 136 139 141 137 107 74 73 74 77 82 68 56 63 62 64 67 71 70 67 60 67 84 114 123 128 133 131 131 133 117 107
142 183 236 237 155 143 143 136 127 127 156 175 151 142 142 141 145 148 154 159 165 156 138 111 110 96 94 82 78 64 64 63 63 70 75 80 71 61 53 57 79 86 93 87 93 86 86 97 103
146 233 204 153 106 126 141 129 118 154 191 157 148 147 148 154 162 163 163 164 158 149 160 145 130 115 106 101 90 88 84 75 69 67 92 100 92 74 64 66 63 66 79 85 77 82 87 99 109
121 355 74 105 94 107 108 116 123 133 122 127 134 143 153 161 165 165 164 159 156 159 173 168 149 145 134 120 126 113 106 101 100 95 108 127 124 115 96 81 78 78 85 92 88 89 97 99 95
147 77 52 75 88 91 109 96 102 142 135 136 145 156 166 170 166 161 164 166 167 170 174 160 154 156 141 139 145 142 139 139 118 97 135 146 145 145 133 116 102 106 111 116 112 110 108 107 103
82 68 31 36 76 105 104 55 146 158 146 151 160 165 169 176 169 175 179 177 176 173 166 162 162 144 143 151 166 155 150 134 128 129 97 162 163 160 152 137 132 138 126 115 106 97 99 119 115
56 61 30 270 119 122 117 220 216 158 157 165 171 172 175 185 185 184 180 178 175 167 164 171 168 152 159 163 161 139 136 134 139 131 36 255 156 156 147 144 150 129 115 118 124 119 110 102 102
41 72 240 258 189 146 143 219 203 166 167 175 181 182 182 186 192 192 185 180 176 175 169 162 155 156 166 158 138 120 113 112 111 110 140 216 134 144 144 153 147 125 117 127 156 123 132 134 130
203 211 245 240 217 150 182 231 189 177 182 186 186 187 188 193 201 192 185 180 176 177 169 160 158 159 147 128 106 91 82 55 42 84 186 163 137 136 138 136 118 116 117 111 116 121 110 123 131
168 179 237 255 210 162 207 231 206 185 191 195 192 193 196 203 203 185 181 178 169 171 172 170 166 166 150 141 144 143 174 206 279 255 215 167 145 136 130 128 123 127 132 143 143 129 112 99 116
170 199 249 301 288 162 214 259 225 195 202 200 198 198 199 199 193 188 182 181 180 181 183 181 181 175 173 172 160 155 153 162 188 298 24 137 148 144 142 140 142 140 132 130 139 133 131 132 127
211 192 207 211 27 47 77 320 242 217 210 209 207 201 199 197 196 193 188 189 186 189 191 191 189 184 180 166 125 100 78 56 46 11 344 323 140 137 138 149 150 152 157 167 169 161 159 165 159
247 221 184 167 121 295 120 280 281 223 216 218 215 208 208 204 196 192 190 191 196 197 189 188 186 185 178 161 154 157 163 181 209 204 197 56 107 145 152 152 157 162 164 170 184 168 165 154 175
208 154 146 147 138 58 16 182 285 240 235 233 219 212 209 205 197 194 194 196 198 191 184 186 184 187 179 169 170 166 177 195 189 149 128 121 40 135 155 157 164 167 172 176 172 160 157 161 173
132 74 55 49 72 321 238 175 274 232 222 232 218 212 206 199 197 197 194 186 190 184 180 181 183 192 186 178 178 179 185 183 172 174 172 186 209 305 179 159 164 174 175 177 179 171 165 171 170
102 93 43 9 12 254 242 192 249 249 233 222 214 206 201 193 191 192 188 188 190 188 187 184 186 197 190 184 187 190 193 188 189 191 188 186 199 227 228 194 181 183 191 187 176 166 175 179 173
166 139 154 187 215 268 280 231 254 267 270 241 210 194 186 185 189 192 194 193 194 194 191 187 189 195 187 188 193 190 188 188 193 191 187 194 206 218 212 195 195 194 190 191 179 176 186 174 179
135 151 156 132 144 276 275 281 298 312 332 10 147 155 180 190 192 193 192 194 194 192 192 190 188 191 189 190 188 190 189 188 190 188 189 198 208 208 198 196 201 205 199 189 166 167 181 164 176
133 141 107 121 145 234 289 277 255 273 270 271 191 186 193 192 193 193 190 192 194 193 190 185 187 193 192 188 192 197 196 195 191 183 195 203 208 203 191 200 204 204 202 180 155 158 169 159 183
112 106 112 120 151 157 231 266 230 218 221 220 218 208 199 192 193 194 190 187 184 180 180 183 188 188 189 193 193 190 190 189 186 194 203 205 205 195 192 198 196 197 195 179 166 175 171 175 195
156 160 147 150 197 172 176 261 274 213 220 211 216 209 202 192 192 186 182 174 173 177 180 184 187 191 196 192 186 190 182 174 182 196 201 192 191 195 195 189 188 194 191 180 171 175 176 185 199